[[{"header":{"parameterUnit":"m.s-1","parameterCategory":1,"la1":30.2991,"la2":30.254,"lo1":-89.0895,"lo2":-89.0444,"dy":0.0017,"dx":0.0017,"nx":28,"ny":28,"refTime":"2024-12-07T09:00:00:Z","depth":0,"parameterNumber":2,"parameterNumberName":"U-component_of_WINDS"},"data":[0,0,0,0,0,0,0,0,0,0,0,0,0,0,0,0,0,0,0,0,0,0,0,0,0,0,0,0,0,0,0,0,0,0,0,0,0,0,0,0,0,0,0,0,0,0,0,0,0,0,0,0,0,0,0,0,0,0,-2.9083,-2.9084,0,-2.9125,-2.9126,-2.9126,-2.9118,-2.9117,-2.9116,-2.9115,-2.9157,-2.9159,-2.916,0,0,0,0,0,0,0,0,0,0,0,0,0,-2.8993,-2.8995,-2.9083,-2.9084,-2.9084,-2.9125,-2.9126,-2.9126,-2.9118,-2.9117,-2.9116,-2.9115,-2.9156,-2.9158,-2.9161,0,0,0,0,0,0,0,0,0,0,0,0,0,-2.9034,-2.8996,-2.9083,-2.9085,-2.9086,-2.9125,-2.9126,-2.9127,-2.9118,-2.9117,-2.9116,-2.9115,-2.9156,-2.9158,-2.9161,-2.9201,0,0,-2.9169,-2.917,0,0,0,0,0,0,0,0,-2.9031,-2.9037,-2.9084,-2.9085,-2.9086,-2.9115,-2.9109,-2.9151,-2.9118,-2.9106,-2.9115,-2.9114,-2.9144,-2.9147,-2.9158,-2.9203,-2.9204,-2.9169,-2.9171,-2.9172,-2.9173,0,0,0,0,0,0,0,-2.9029,-2.9035,-2.91,-2.9085,-2.9086,-2.9083,-2.9087,-2.9117,-2.9131,-2.9107,-2.9106,-2.9111,-2.9144,-2.9155,-2.9159,-2.9205,-2.9169,-2.9172,-2.9174,-2.9175,-2.9282,-2.9284,0,0,0,0,0,0,-2.9025,-2.9033,-2.9099,-2.9101,-2.9055,-2.9086,-2.9091,-2.9107,-2.913,-2.9133,-2.9112,-2.9111,-2.9151,-2.9156,-2.916,-2.9206,-2.9172,-2.9175,-2.9176,-2.9281,-2.9283,-2.9284,0,0,0,0,0,0,-2.9024,-2.9031,-2.9097,-2.9067,-2.9075,-2.9088,-2.9107,-2.9108,-2.9119,-2.9135,-2.9137,-2.9121,-2.915,-2.9156,-2.919,-2.9208,-2.9176,-2.9179,-2.928,-2.9282,-2.9283,-2.9301,0,0,0,0,0,0,-2.9021,-2.9031,-2.9047,-2.9067,-2.9077,-2.9127,-2.9108,-2.911,-2.9124,-2.9123,-2.9144,-2.9146,-2.915,-2.9186,-2.9193,-2.9211,-2.9181,-2.9278,-2.9281,-2.9283,-2.9299,-2.9303,-2.9307,0,0,0,0,0,-2.9018,-2.905,-2.9047,-2.9055,-2.9097,-2.9128,-2.9133,-2.9138,-2.9126,-2.9141,-2.9151,-2.9145,-2.9205,-2.919,-2.9197,-2.9216,-2.9277,-2.928,-2.9283,-2.9297,-2.9302,-2.9306,0,0,0,0,0,0,-2.9031,-2.9053,-2.905,-2.909,-2.9107,-2.9127,-2.9146,-2.9143,-2.9164,-2.9162,-2.9166,-2.917,-2.9205,-2.9214,-2.9197,-2.9255,-2.9239,-2.9244,-2.9247,-2.9253,-2.9257,-2.9253,-2.9183,0,0,0,0,0,-2.9038,-2.9062,-2.908,-2.9114,-2.9122,-2.9133,-2.9147,-2.9149,-2.9166,-2.9173,-2.9186,-2.9202,-2.9225,-2.924,-2.9261,-2.93,-2.9304,-2.9317,-2.9321,-2.9324,-2.9328,-2.9347,-2.9353,-2.9293,-2.9293,-2.9293,0,0,-2.9054,-2.9069,-2.9084,-2.9116,-2.913,-2.9154,-2.9139,-2.9165,-2.9183,-2.9177,-2.921,-2.9219,-2.9238,-2.9275,-2.9291,-2.9283,-2.9345,-2.9328,-2.933,-2.9332,-2.935,-2.9356,-2.9361,-2.9295,-2.9295,-2.9294,0,0,-2.9094,-2.9109,-2.9137,-2.9151,-2.9172,-2.9178,-2.9185,-2.9205,-2.9211,-2.9244,-2.924,-2.926,-2.9299,-2.9313,-2.9324,-2.9369,-2.9364,-2.9376,-2.9396,-2.9415,-2.942,-2.9424,-2.9438,-2.9443,-2.9379,-2.938,-2.938,0,-2.911,-2.9147,-2.9152,-2.9178,-2.9192,-2.9189,-2.9217,-2.923,-2.9256,-2.9265,-2.9257,-2.9305,-2.9318,-2.9356,-2.9367,-2.9377,-2.9384,-2.9373,-2.9419,-2.9423,-2.9427,-2.944,-2.9446,-2.9381,-2.9381,-2.938,-2.938,0,-2.9165,-2.919,-2.9211,-2.9236,-2.9253,-2.928,-2.9288,-2.9304,-2.9304,-2.9312,-2.9344,-2.9359,-2.9383,-2.9393,-2.9394,-2.9431,-2.9425,-2.9418,-2.9402,-2.9434,-2.9446,-2.9451,-2.9382,-2.9382,-2.9382,-2.9381,0,0,-2.9214,-2.9242,-2.9249,-2.926,-2.9282,-2.9301,-2.9328,-2.9352,-2.9364,-2.9383,-2.9404,-2.9437,-2.9429,-2.9443,-2.9445,-2.9462,-2.9494,-2.9452,-2.9453,-2.9458,-2.9534,-2.9538,-2.9544,-2.9491,-2.9492,-2.9493,-2.9531,0,-2.9254,-2.9301,-2.9306,-2.9348,-2.937,-2.9367,-2.939,-2.9406,-2.9413,-2.9433,-2.9441,-2.9463,-2.9453,-2.9461,-2.9478,-2.9486,-2.9509,-2.9484,-2.9509,-2.951,-2.9503,-2.955,-2.9555,-2.959,-2.9536,-2.9537,-2.9538,0,-2.9308,-2.9328,-2.9372,-2.939,-2.9399,-2.942,-2.9441,-2.946,-2.9477,-2.9481,-2.9496,-2.9496,-2.9522,-2.9506,-2.9541,-2.9524,-2.9535,-2.9541,-2.9542,-2.9543,-2.9525,-2.9551,-2.9602,-2.9606,-2.9546,-2.9545,-2.9545,0,-2.9337,-2.9374,-2.9405,-2.9415,-2.9437,-2.9451,-2.9461,-2.9477,-2.9491,-2.9509,-2.9518,-2.9539,-2.955,-2.9566,-2.9571,-2.956,-2.9605,-2.959,-2.9608,-2.9608,-2.9617,-2.9616,-2.9668,-2.9627,-2.9627,-2.9627,-2.9627,0,-2.938,-2.9407,-2.9418,-2.9437,-2.9466,-2.9471,-2.9499,-2.9508,-2.9522,-2.9542,-2.9541,-2.9559,-2.9566,-2.9585,-2.9589,-2.9616,-2.9622,-2.9625,-2.9625,-2.9624,-2.9623,-2.963,-2.9627,-2.9628,-2.9628,-2.9628,-2.9627,0,-2.9417,-2.9426,-2.9458,-2.9477,-2.9482,-2.9502,-2.9517,-2.9535,-2.9542,-2.9566,-2.9573,-2.9584,-2.9606,-2.9613,-2.964,-2.9642,-2.9674,-2.9673,-2.9668,-2.9667,-2.9684,-2.9681,-2.9741,-2.9748,-2.9704,-2.9704,-2.9704,0,-2.9443,-2.9463,-2.9484,-2.9497,-2.9507,-2.9529,-2.9542,-2.9548,-2.9562,-2.9582,-2.9597,-2.9619,-2.9637,-2.9672,-2.9682,-2.9702,-2.9701,-2.972,-2.9704,-2.9701,-2.9698,-2.9696,-2.9698,-2.9722,-2.9723,-2.9723,-2.9724,0,-2.9489,-2.9492,-2.9512,-2.9533,-2.9549,-2.9566,-2.9582,-2.9593,-2.9601,-2.9616,-2.9639,-2.9653,-2.968,-2.9701,-2.9721,-2.9731,-2.9728,-2.9729,-2.9734,-2.9732,-2.9727,-2.9728,-2.9674,-2.9727,-2.9727,-2.9727,-2.9726,-2.9726,-2.952,-2.9537,-2.9553,-2.9575,-2.9588,-2.9603,-2.9619,-2.9629,-2.9648,-2.967,-2.9673,-2.9697,-2.9712,-2.9739,-2.9749,-2.9768,-2.9762,-2.9769,-2.9771,-2.9772,-2.9772,-2.9726,-2.9772,-2.9771,-2.9771,-2.9771,-2.9771,0,-2.9563,-2.9574,-2.9594,-2.9616,-2.9633,-2.963,-2.9648,-2.9661,-2.9683,-2.9698,-2.9715,-2.974,-2.9761,-2.9772,-2.9792,-2.9804,-2.9803,-2.9809,-2.9807,-2.9809,-2.9777,-2.977,-2.9809,-2.9809,-2.9809,-2.9809,-2.9809,-2.9809,-2.9588,-2.9616,-2.9621,-2.9655,-2.9665,-2.9689,-2.9699,-2.9712,-2.9724,-2.9752,-2.9769,-2.9776,-2.979,-2.981,-2.9829,-2.9831,-2.9838,-2.9844,-2.9846,-2.9816,-2.9812,-2.9808,-2.9801,-2.9846,-2.9846,-2.9876,-2.9876,-2.9876]},{"header":{"parameterUnit":"m.s-1","parameterCategory":1,"la1":30.2991,"la2":30.254,"lo1":-89.0895,"lo2":-89.0444,"dy":0.0017,"dx":0.0017,"nx":28,"ny":28,"refTime":"2024-12-07T09:00:00:Z","depth":0,"parameterNumber":3,"parameterNumberName":"V-component_of_WINDS"},"data":[0,0,0,0,0,0,0,0,0,0,0,0,0,0,0,0,0,0,0,0,0,0,0,0,0,0,0,0,0,0,0,0,0,0,0,0,0,0,0,0,0,0,0,0,0,0,0,0,0,0,0,0,0,0,0,0,0,0,1.6843,1.6844,0,1.6945,1.6946,1.6947,1.694,1.6938,1.6937,1.6935,1.704,1.7044,1.7048,0,0,0,0,0,0,0,0,0,0,0,0,0,1.6643,1.6646,1.6843,1.6844,1.6845,1.6945,1.6946,1.6948,1.694,1.6938,1.6936,1.6934,1.7038,1.7043,1.7048,0,0,0,0,0,0,0,0,0,0,0,0,0,1.6736,1.6648,1.6843,1.6854,1.6856,1.6945,1.6946,1.6948,1.694,1.6938,1.6936,1.6934,1.7037,1.7043,1.7049,1.7134,0,0,1.7068,1.7071,0,0,0,0,0,0,0,0,1.673,1.6743,1.6851,1.6853,1.6855,1.6927,1.6914,1.701,1.6941,1.6908,1.6935,1.6932,1.7004,1.7013,1.7037,1.7139,1.7143,1.7069,1.7073,1.7076,1.7077,0,0,0,0,0,0,0,1.6724,1.6739,1.6883,1.6852,1.6855,1.6854,1.6865,1.6932,1.6968,1.6911,1.6911,1.6923,1.7005,1.7031,1.704,1.7145,1.7069,1.7074,1.7078,1.7081,1.7325,1.7327,0,0,0,0,0,0,1.6715,1.6733,1.688,1.6886,1.6786,1.6859,1.6871,1.6907,1.6967,1.6974,1.6925,1.6922,1.7022,1.7032,1.7043,1.715,1.7076,1.7081,1.7085,1.7322,1.7325,1.7328,0,0,0,0,0,0,1.6711,1.6728,1.6876,1.681,1.6829,1.6865,1.6905,1.691,1.6936,1.6977,1.6984,1.6945,1.702,1.7034,1.7112,1.7153,1.7084,1.709,1.7319,1.7323,1.7327,1.7361,0,0,0,0,0,0,1.6705,1.6727,1.6759,1.6811,1.6832,1.6943,1.6907,1.6913,1.6947,1.6944,1.6998,1.7005,1.7019,1.7103,1.7119,1.716,1.7095,1.7315,1.7321,1.7325,1.7356,1.7365,1.7373,0,0,0,0,0,1.6698,1.6764,1.676,1.6778,1.6873,1.6945,1.6958,1.6973,1.695,1.6983,1.701,1.7003,1.7145,1.7111,1.7129,1.7173,1.7313,1.7319,1.7325,1.7352,1.7363,1.7373,0,0,0,0,0,0,1.6715,1.6771,1.6768,1.6852,1.6894,1.6944,1.6986,1.6984,1.7033,1.7029,1.7046,1.7059,1.7138,1.7162,1.7123,1.726,1.7226,1.7236,1.7241,1.7252,1.726,1.7254,1.71,0,0,0,0,0,1.6729,1.6782,1.6828,1.6898,1.6919,1.6949,1.6981,1.699,1.7034,1.7051,1.7084,1.7127,1.7182,1.7218,1.727,1.7359,1.7372,1.7398,1.7407,1.7413,1.7423,1.7474,1.7487,1.7348,1.7348,1.7348,0,0,1.6758,1.6794,1.6827,1.6902,1.6936,1.6992,1.6964,1.7024,1.7066,1.706,1.7137,1.7162,1.7212,1.7296,1.7335,1.732,1.7464,1.7421,1.7426,1.7432,1.7482,1.7495,1.7507,1.7352,1.7351,1.7351,0,0,1.6839,1.6871,1.6935,1.697,1.7021,1.7041,1.7056,1.7107,1.7124,1.72,1.7198,1.7248,1.7342,1.7378,1.7409,1.7506,1.7503,1.7523,1.7568,1.7619,1.763,1.764,1.7677,1.769,1.7531,1.7531,1.7531,0,1.6869,1.6953,1.6968,1.703,1.7064,1.7061,1.7127,1.7159,1.7225,1.7249,1.7231,1.735,1.7382,1.7477,1.7501,1.7525,1.7545,1.7518,1.7627,1.7637,1.7646,1.7683,1.7697,1.7534,1.7533,1.7533,1.7533,0,1.6989,1.7047,1.7092,1.7157,1.7196,1.7259,1.7284,1.7322,1.7327,1.7349,1.7429,1.7468,1.753,1.7553,1.7558,1.7649,1.7638,1.7623,1.759,1.7662,1.7696,1.771,1.7537,1.7536,1.7535,1.7535,0,0,1.7085,1.7158,1.7175,1.7205,1.7263,1.7309,1.7372,1.7433,1.7466,1.7512,1.7567,1.7647,1.7634,1.7669,1.7678,1.7722,1.78,1.7702,1.7703,1.7721,1.7907,1.792,1.7936,1.7797,1.78,1.7802,1.7904,0,1.7175,1.7288,1.7304,1.7404,1.746,1.7459,1.7515,1.7557,1.7579,1.763,1.7654,1.7712,1.7689,1.7711,1.7753,1.7782,1.7838,1.7774,1.7851,1.7853,1.7842,1.7953,1.7967,1.8061,1.7917,1.7919,1.7921,0,1.7295,1.7346,1.7452,1.7504,1.7528,1.7578,1.7637,1.7685,1.7732,1.7746,1.7786,1.779,1.7857,1.782,1.7914,1.787,1.7902,1.7921,1.7925,1.7935,1.7894,1.7969,1.8091,1.8107,1.7941,1.794,1.7938,0,1.7359,1.7453,1.753,1.7556,1.7617,1.7653,1.768,1.7726,1.7762,1.7813,1.7837,1.7895,1.7927,1.7972,1.7992,1.7963,1.8087,1.805,1.8102,1.8101,1.813,1.8128,1.8262,1.8145,1.8145,1.8145,1.8144,0,1.746,1.7526,1.756,1.7607,1.7682,1.7699,1.7772,1.7798,1.7839,1.7893,1.7894,1.7944,1.7967,1.8021,1.8036,1.8114,1.8128,1.8142,1.8146,1.8144,1.8142,1.8167,1.8162,1.8148,1.8148,1.8147,1.8146,0,1.7545,1.757,1.7654,1.7706,1.772,1.7773,1.7818,1.7865,1.7886,1.7954,1.7971,1.8006,1.807,1.8094,1.8171,1.8182,1.8273,1.827,1.8257,1.8259,1.831,1.8307,1.8467,1.849,1.8355,1.8356,1.8357,0,1.7609,1.766,1.7718,1.7754,1.7783,1.7841,1.7878,1.7897,1.7937,1.7996,1.8036,1.81,1.8152,1.8254,1.8287,1.8347,1.8348,1.84,1.8357,1.8354,1.8353,1.8351,1.8357,1.8409,1.841,1.8411,1.8412,0,1.7722,1.7732,1.7786,1.7846,1.7891,1.7938,1.7985,1.8014,1.804,1.8085,1.815,1.8191,1.8271,1.8335,1.8397,1.8426,1.8425,1.8425,1.8441,1.8441,1.8433,1.8441,1.8283,1.8422,1.8421,1.842,1.842,1.8419,1.7801,1.7847,1.7896,1.7957,1.7994,1.8038,1.8085,1.8113,1.8169,1.8236,1.8243,1.8315,1.8363,1.8446,1.8478,1.8534,1.8521,1.8542,1.8549,1.8555,1.856,1.8421,1.8545,1.8545,1.8545,1.8544,1.8544,0,1.7917,1.7948,1.8004,1.807,1.8118,1.8112,1.8163,1.8204,1.8267,1.8312,1.8364,1.8441,1.8504,1.8541,1.8605,1.8643,1.8644,1.8659,1.8658,1.8666,1.8567,1.8549,1.8658,1.8658,1.8658,1.8658,1.8657,1.8657,1.7983,1.8062,1.8079,1.8177,1.8208,1.8278,1.8309,1.835,1.8386,1.8472,1.8524,1.8548,1.8592,1.8658,1.8716,1.8725,1.875,1.8767,1.8776,1.8684,1.8672,1.8661,1.8644,1.8771,1.8772,1.8871,1.8871,1.8872]}]]